Weather History for KRQE - November, 2011

Change the Weather History Date:

Saturday, November 26, 2011

  Actual Average Record
Temperature  
Mean Temperature 32 °F -  
Max Temperature 46 °F 47 °F 69 °F (1954)
Min Temperature 19 °F 21 °F -8 °F (1952)
Degree Days  
Heating Degree Days 32    
Moisture  
Dew Point 8 °F    
Average Humidity 36    
Maximum Humidity 68    
Minimum Humidity 16    
Precipitation  
Precipitation 0.00 in - - ()
Sea Level Pressure  
Sea Level Pressure 30.36 in    
Wind  
Wind Speed 10 mph (NNW)    
Max Wind Speed 18 mph    
Max Gust Speed 25 mph    
Visibility 10 miles    
Events      
Averages and records for this station are not official NWS values.
T = Trace of Precipitation, MM = Missing Value Source: NWS Daily Summary

Daily Weather History Graph

Daily Weather History Graph

Search for Another Location

Airport or City:

Trip Planner

Search our weather history database for the weather conditions in past years. The results will help you decide how hot, cold, wet, or windy it might be!

Date:

Astronomy

Nov. 26, 2011 Rise Set
Actual Time 7:02 AM MST 5:04 PM MST
Civil Twilight 6:34 AM MST 5:31 PM MST
Nautical Twilight 6:03 AM MST 6:03 PM MST
Astronomical Twilight 5:32 AM MST 6:33 PM MST
Moon 8:34 AM MST (11/26) 6:40 PM MST (11/26)
Length of Visible Light 10h 57m
Length of Day
10h 01m
Waxing Crescent, 3% of the Moon is Illuminated
Nov 26
Waxing Crescent
Dec 2
First Quarter
Dec 10
Full
Dec 17
Last Quarter
Dec 24
New

Hourly Weather History & Observations

Time (MST) Temp. Windchill Dew Point Humidity Pressure Visibility Wind Dir Wind Speed Gust Speed Precip Events Conditions
12:53 AM 35.1 °F 26.9 °F 17.1 °F 48% 30.12 in 10.0 mi NNW 11.5 mph 20.7 mph N/A   Clear
1:53 AM 36.0 °F 25.6 °F 14.0 °F 41% 30.11 in 10.0 mi North 18.4 mph 25.3 mph N/A   Clear
2:53 AM 33.1 °F 28.7 °F 14.0 °F 46% 30.17 in 10.0 mi West 4.6 mph - N/A   Clear
3:53 AM 35.1 °F 27.9 °F 14.0 °F 42% 30.18 in 10.0 mi NNW 9.2 mph - N/A   Clear
4:53 AM 28.0 °F - 15.1 °F 58% 30.26 in 10.0 mi Calm Calm - N/A   Clear
5:53 AM 30.9 °F 26.2 °F 12.9 °F 47% 30.28 in 10.0 mi North 4.6 mph - N/A   Clear
6:53 AM 30.0 °F 24.1 °F 12.9 °F 49% 30.30 in 10.0 mi North 5.8 mph - N/A   Clear
7:53 AM 32.0 °F 25.6 °F 10.9 °F 42% 30.36 in 10.0 mi North 6.9 mph - N/A   Clear
8:53 AM 37.9 °F 30.0 °F 7.0 °F 28% 30.38 in 10.0 mi North 12.7 mph 21.9 mph N/A   Clear
9:53 AM 41.0 °F 33.9 °F 3.0 °F 21% 30.38 in 10.0 mi North 12.7 mph - N/A   Clear
10:53 AM 42.1 °F 35.2 °F 1.9 °F 19% 30.39 in 10.0 mi North 12.7 mph - N/A   Clear
11:53 AM 44.1 °F 38.1 °F 1.9 °F 17% 30.38 in 10.0 mi North 11.5 mph 20.7 mph N/A   Clear
12:53 PM 45.0 °F 38.9 °F 1.9 °F 17% 30.34 in 10.0 mi NNW 12.7 mph 21.9 mph N/A   Clear
1:53 PM 46.9 °F - 3.0 °F 16% 30.31 in 10.0 mi North 15.0 mph 21.9 mph N/A   Clear
2:53 PM 46.0 °F 39.9 °F 3.0 °F 17% 30.34 in 10.0 mi NNW 13.8 mph 19.6 mph N/A   Clear
3:53 PM 44.1 °F 37.4 °F 3.0 °F 18% 30.35 in 10.0 mi North 13.8 mph - N/A   Clear
4:53 PM 39.0 °F 32.8 °F 3.9 °F 23% 30.43 in 10.0 mi North 9.2 mph - N/A   Clear
5:53 PM 33.1 °F 28.7 °F 7.0 °F 34% 30.46 in 10.0 mi North 4.6 mph - N/A   Clear
6:53 PM 30.9 °F 26.2 °F 7.0 °F 37% 30.48 in 10.0 mi North 4.6 mph - N/A   Clear
7:53 PM 30.0 °F 21.1 °F 6.1 °F 36% 30.49 in 10.0 mi North 10.4 mph - N/A   Clear
8:53 PM 28.9 °F 22.8 °F 7.0 °F 40% 30.48 in 10.0 mi North 5.8 mph - N/A   Clear
9:53 PM 27.0 °F 20.5 °F 7.0 °F 43% 30.49 in 10.0 mi NNW 5.8 mph - N/A   Clear
10:53 PM 19.0 °F 12.3 °F 10.0 °F 68% 30.53 in 10.0 mi South 4.6 mph - N/A   Clear
11:53 PM 21.0 °F - 10.9 °F 65% 30.52 in 10.0 mi Calm Calm - N/A   Clear